Location: *
(90.0000°N, 180.0000°W)
Time: 15:33:58
(UTC+02:00)

Okean O Rocket - Visible Passes

Search period start: 29 September 2016 00:00
Search period end: 09 October 2016 00:00
Orbit: 624 x 645 km, 98.1° (Epoch: 28 September)

Date Brightness Start Highest point End Pass type
(mag) Time Alt. Az. Time Alt. Az. Time Alt. Az.
08 Oct 3.6 05:00:22 10° SSW 05:04:20 30° W 05:08:15 10° NNW visible
08 Oct 3.6 06:37:50 10° SW 06:41:47 30° WNW 06:45:42 10° N visible
08 Oct 3.6 08:15:18 10° WSW 08:19:15 30° NW 08:23:11 10° NNE visible
08 Oct 3.6 09:52:46 10° W 09:56:43 30° NNW 10:00:38 10° NE visible
08 Oct 3.6 11:30:13 10° WNW 11:34:11 30° N 11:38:06 10° ENE visible
08 Oct 3.6 13:07:41 10° NW 13:11:39 30° NNE 13:15:34 10° E visible
08 Oct 3.6 14:45:09 10° N 14:49:06 30° NE 14:53:02 10° ESE visible
08 Oct 3.6 16:22:37 10° NNE 16:26:34 30° ENE 16:30:30 10° SE visible
08 Oct 3.6 18:00:05 10° NE 18:04:02 30° ESE 18:07:58 10° SSE visible
08 Oct 3.6 19:37:33 10° ENE 19:41:30 30° SE 19:45:25 10° S visible
08 Oct 3.6 21:15:01 10° E 21:18:57 30° SSE 21:22:53 10° SSW visible
08 Oct 3.6 22:52:29 10° ESE 22:56:26 30° S 23:00:21 10° WSW visible
